Home   Weather   Huelva   Past weeks

Flag for Spain Past Weather in Huelva, Spain — Yesterday and Last 2 Weeks

66 °F

Thundershowers. Passing clouds.

Feels Like: 66 °F
Forecast: 65 / 80 °F
Wind: 6 mph from Southeast

Location: Rota Airport

Current Time: Oct 25, 2016 at 8:56:02 AM

Latest Report: Oct 25, 2016 at 8:00 AM

Visibility: N/A

Pressure: 29.89 "Hg

Humidity: 88%

Dew Point: 63 °F

Location of HuelvaLocation

Past Weather in Huelva — Graph


Huelva Temperature Yesterday

Maximum temperature yesterday: 72 °F (at 4:00 PM)
Minimum temperature yesterday: 57 °F (at 3:00 AM)
Average temperature yesterday: 64 °F

High & Low Weather Summary for the Past Weeks

High84 °F (Oct 18, 2:00 PM)100% (Oct 21, 1:00 AM)30.21 "Hg (Oct 21, 1:00 AM)
Low54 °F (Oct 11, 7:00 AM)41% (Oct 15, 4:00 PM)29.59 "Hg (Oct 13, 5:00 AM)
Average67 °F81%29.92 "Hg
* Reported Oct 10 7:00 AM — Oct 25 7:00 AM, Huelva, Weather by CustomWeather, © 2016

Note: Actual official high and low records may vary slightly from our data, if they occured in-between our weather recording intervals... More about our weather records


Huelva Weather History for the Previous 24 Hours

Scroll right to see more
Time TempWeatherWind HumidityBarometerVisibility
7:00 AM
Tue, Oct 25
68 °FClear.9 mph73%29.86 "Hg10 mi
6:00 AM66 °FClear.8 mph78%29.83 "Hg10 mi
5:00 AM66 °FClear.8 mph83%29.83 "Hg10 mi
4:00 AM68 °FThundershowers. Passing clouds.6 mph78%29.86 "HgN/A
3:00 AM68 °FThundershowers. Passing clouds.9 mph83%29.86 "HgN/A
2:00 AM68 °FClear.8 mph83%29.86 "Hg10 mi
1:00 AM68 °FPassing clouds.7 mph83%29.86 "HgN/A
12:00 AM68 °FClear.7 mph83%29.83 "Hg10 mi
11:00 PM
Mon, Oct 24
68 °FClear.9 mph83%29.83 "Hg10 mi
10:00 PM68 °FPassing clouds.9 mph83%29.80 "HgN/A
9:00 PM70 °FPassing clouds.9 mph78%29.80 "HgN/A
8:00 PM70 °FPassing clouds.9 mph78%29.80 "HgN/A
7:00 PM70 °FScattered clouds.8 mph78%29.77 "HgN/A
6:00 PM70 °FScattered clouds.8 mph78%29.77 "HgN/A
5:00 PM70 °FScattered clouds.8 mph78%29.77 "HgN/A
4:00 PM72 °FScattered clouds.10 mph78%29.77 "HgN/A
3:00 PM70 °FScattered clouds.12 mph78%29.77 "HgN/A
2:00 PM68 °FScattered clouds.13 mph88%29.77 "HgN/A
1:00 PM66 °FLight rain. Broken clouds.13 mph94%29.77 "HgN/A
12:00 PM66 °FMore clouds than sun.9 mph94%29.80 "HgN/A
11:00 AM63 °FPartly sunny.7 mph94%29.80 "HgN/A
10:00 AM63 °FLight rain. Scattered clouds.8 mph94%29.80 "HgN/A
9:00 AM63 °FScattered clouds.6 mph94%29.77 "HgN/A
8:00 AM61 °FLight rain. Passing clouds.9 mph94%29.74 "HgN/A
Weather by CustomWeather, © 2016

See weather overviewHow to use our weather pages